Skip Navigation Links
NOAA logo - Click to go to the NOAA homepage
NOAA's National Weather Service
Alaska Aviation Weather Unit
  NWS logo - Click to go to the NWS homepage
Left Navbar Graphic     22 AKDT = 06 GMT

   
NOAA is celebrating 200 years of science, service, and stewardship. Visit the NOAA 200th celebration Web site to learn more.
USA.gov is the U.S. Government's official Web portal to all Federal, state and local government Web resources and services.
Facebook
NWS on Facebook

Important Change Regarding the AAWU Web Presence

 

Over the last several months, the AAWU has been working to navigate its webpages to a nationally supported server. Security, as well as other needs, have necessitated the change.  We have been given an extension for the site changeover while we diligently work at addressing feedback received. As of July 14, 2017, aawu.arh.noaa.gov will be discontinued. The new AAWU web address is weather.gov/aawu. It is now live and will run in-parallel with the old site until it is discontinued on July 14, 2017. Please continue to send any feedback or questions regarding the new webpages to nws.ar.aawu.webauthors@noaa.gov.  Thank you for your patience during this time of transition.
AAWU Home :: Display TAF Add Bookmark
TAF PAGK 260537Z 2606/2706 17005KT P6SM SCT040 BKN090=

METAR PAGK 260053Z AUTO 14004KT 10SM OVC090 17/12 A2992 RMK AO2 SLP129 T01720122 TSNO $= METAR PAGK 260153Z AUTO 00000KT 10SM OVC100 17/12 A2990 RMK AO2 RAB02E22 SLP124 P0000 T01720122 TSNO $= METAR PAGK 260253Z AUTO 00000KT 10SM BKN110 18/12 A2989 RMK AO2 SLP119 60000 T01780122 57014 TSNO $= METAR PAGK 260453Z AUTO 29006KT 10SM FEW034 BKN090 OVC110 16/12 A2988 RMK AO2 SLP119 T01560117 TSNO $= METAR PAGK 260553Z AUTO 00000KT 10SM OVC080 15/12 A2988 RMK AO2 SLP118 60000 T01500122 10178 20150 56003 TSNO $=
 Alaska TAF Map

NOAA's National Weather Service
Alaska Aviation Weather Unit
6930 Sand Lake Road
Anchorage, AK 99502-1845
Disclaimer
Credits
Glossary
Privacy Policy
About Us
Career Opportunities
Contact AAWU Internet Services Site last modified: April, 17th 2012